This is the latest recevied weather packets stored in our database for station/object PY2WOA-13. If no packets are shown the sender has not sent any weather packets the latest 10 day(s).
| Time | Temp. | Humidity | Pressure | Rain* | Wind** | Luminosity | Snow |
|---|---|---|---|---|---|---|---|
| 1787963704 | 27.22° C | 61% | 1008 hPa | - | - | - | - |
| 1787961904 | 27.22° C | 62% | 1007.8 hPa | - | - | - | - |
| 1787960104 | 27.78° C | 62% | 1007.8 hPa | - | - | - | - |
| 1787958304 | 28.33° C | 60% | 1007.2 hPa | - | - | - | - |
| 1787956503 | 28.89° C | 58% | 1006.8 hPa | - | - | - | - |
| 1787954703 | 29.44° C | 55% | 1006.3 hPa | - | - | - | - |
| 1787952904 | 30° C | 50% | 1005.9 hPa | - | - | - | - |
| 1787951104 | 31.67° C | 42% | 1005.5 hPa | - | - | - | - |
| 1787949304 | 33.33° C | 37% | 1005.2 hPa | - | - | - | - |
| 1787947504 | 35° C | 34% | 1004.7 hPa | - | - | - | - |
| 1787945704 | 36.67° C | 32% | 1004.3 hPa | - | - | - | - |
| 1787943904 | 37.78° C | 30% | 1004.1 hPa | - | - | - | - |
| 1787942103 | 36.67° C | 31% | 1004.1 hPa | - | - | - | - |
| 1787940305 | 37.22° C | 32% | 1004.5 hPa | - | - | - | - |
| 1787938504 | 34.44° C | 36% | 1005.4 hPa | - | - | - | - |
| 1787936704 | 36.67° C | 33% | 1005.5 hPa | - | - | - | - |
| 1787934904 | 36.67° C | 32% | 1006.1 hPa | - | - | - | - |
| 1787933104 | 35.56° C | 33% | 1006.5 hPa | - | - | - | - |
| 1787931306 | 35.56° C | 35% | 1007 hPa | - | - | - | - |
| 1787929503 | 36.67° C | 35% | 1007.4 hPa | - | - | - | - |
| 1787927703 | 34.44° C | 39% | 1008.3 hPa | - | - | - | - |
| 1787925913 | 32.78° C | 42% | 1009.2 hPa | - | - | - | - |
| 1787924104 | 32.22° C | 45% | 1010 hPa | - | - | - | - |
| 1787922304 | 30.56° C | 49% | 1010.8 hPa | - | - | - | - |
| 1787920504 | 28.33° C | 55% | 1011.3 hPa | - | - | - | - |
* Rain since midnight (hover to see other rain measurements)
** Current wind speed in m/s (hover to see current wind gust speed)